Salisbury, MD

11:51 PM EDT on May 28, 2017 (GMT -0400)
Salisbury-Ocean City Wicomico Regional

Weather History for KSBY - November, 2013

Change the Weather History Date:

Friday, November 22, 2013

  Actual Average Record
Temperature  
Mean Temperature 53 °F 46 °F  
Max Temperature 65 °F 56 °F 78 °F (1931)
Min Temperature 40 °F 36 °F 15 °F (1969)
Degree Days  
Heating Degree Days 12 19  
Month to date heating degree days 319 343  
Since 1 July heating degree days 507 656  
Cooling Degree Days 0 0  
Month to date cooling degree days 8 0  
Year to date cooling degree days 1628 1150  
Growing Degree Days 2 (Base 50)    
Moisture  
Dew Point 50 °F    
Average Humidity 80    
Maximum Humidity 93    
Minimum Humidity 67    
Precipitation  
Precipitation T in 0.12 in 1.84 in (2006)
Month to date precipitation 0.43 2.47  
Year to date precipitation 44.56 41.01  
Snow  
Snow 0.00 in 0.00 in 2.00 in (1989)
Month to date snowfall 0.0 0.1  
Since 1 July snowfall 0.0 0.1  
Snow Depth 0.00 in    
Sea Level Pressure  
Sea Level Pressure 30.20 in    
Wind  
Wind Speed 5 mph (SW)    
Max Wind Speed 16 mph    
Max Gust Speed 22 mph    
Visibility 8 miles    
Events Rain    
T = Trace of Precipitation, MM = Missing Value Source: NWS Daily Summary

Daily Weather History Graph

Daily Weather History Graph

Search for Another Location

Airport or City:

Trip Planner

Search our weather history database for the weather conditions in past years. The results will help you decide how hot, cold, wet, or windy it might be!

Date:

Astronomy

Nov. 22, 2013 Rise Set
Actual Time 6:51 AM EST 4:44 PM EST
Civil Twilight 6:22 AM EST 5:13 PM EST
Nautical Twilight 5:50 AM EST 5:46 PM EST
Astronomical Twilight 5:18 AM EST 6:17 PM EST
Moon 9:13 PM EST (11/22) 10:34 AM EST (11/22)
Length of Visible Light 10h 51m
Length of Day
9h 53m
Waning Gibbous, 78% of the Moon is Illuminated
Nov 22
Waning Gibbous
Nov 25
Last Quarter
Dec 2
New
Dec 9
First Quarter
Dec 17
Full

Hourly Weather History & Observations

Time (EST) Temp. Windchill Dew Point Humidity Pressure Visibility Wind Dir Wind Speed Gust Speed Precip Events Conditions
12:54 AM 41.0 °F 39.0 °F 37.0 °F 86% 30.39 in 10.0 mi ESE 3.5 mph - N/A   Mostly Cloudy
1:22 AM 42.8 °F - 39.2 °F 87% 30.37 in 10.0 mi Calm Calm - N/A   Overcast
1:31 AM 42.8 °F - 39.2 °F 87% 30.37 in 10.0 mi Calm Calm - N/A   Overcast
1:54 AM 44.1 °F - 41.0 °F 89% 30.38 in 9.0 mi Calm Calm - N/A   Overcast
2:42 AM 46.4 °F - 42.8 °F 87% 30.36 in 10.0 mi Calm Calm - N/A   Overcast
2:54 AM 46.0 °F - 42.1 °F 86% 30.35 in 8.0 mi Calm Calm - N/A   Overcast
3:15 AM 46.4 °F - 42.8 °F 87% 30.34 in 1.8 mi Calm Calm - N/A   Overcast
3:21 AM 46.4 °F - 42.8 °F 87% 30.34 in 3.0 mi Calm Calm - N/A   Overcast
3:44 AM 46.4 °F - 44.6 °F 93% 30.32 in 5.0 mi Calm Calm - N/A   Overcast
3:54 AM 46.9 °F - 44.1 °F 90% 30.32 in 8.0 mi Calm Calm - N/A   Overcast
4:54 AM 52.0 °F - 48.9 °F 89% 30.31 in 10.0 mi Calm Calm - N/A   Overcast
5:54 AM 52.0 °F - 48.9 °F 89% 30.29 in 10.0 mi SSW 3.5 mph - N/A   Overcast
6:54 AM 50.0 °F - 48.0 °F 93% 30.28 in 8.0 mi SSW 5.8 mph - N/A   Clear
7:54 AM 54.0 °F - 51.1 °F 90% 30.29 in 7.0 mi SW 5.8 mph - N/A   Overcast
8:21 AM 53.6 °F - 51.8 °F 94% 30.27 in 6.0 mi SSW 8.1 mph - N/A   Overcast
8:42 AM 55.4 °F - 51.8 °F 88% 30.26 in 4.0 mi SSW 8.1 mph - N/A   Mostly Cloudy
8:50 AM 55.4 °F - 51.8 °F 88% 30.26 in 5.0 mi SW 9.2 mph - N/A   Scattered Clouds
8:54 AM 55.9 °F - 53.1 °F 90% 30.27 in 5.0 mi SSW 6.9 mph - N/A   Scattered Clouds
9:54 AM 59.0 °F - 53.1 °F 81% 30.26 in 10.0 mi SW 11.5 mph - N/A   Mostly Cloudy
10:54 AM 62.1 °F - 53.1 °F 72% 30.22 in 10.0 mi SW 9.2 mph - N/A   Mostly Cloudy
11:54 AM 64.0 °F - 53.1 °F 67% 30.18 in 10.0 mi WSW 11.5 mph 19.6 mph N/A   Mostly Cloudy
12:54 PM 63.0 °F - 53.1 °F 70% 30.15 in 10.0 mi SW 8.1 mph - N/A   Mostly Cloudy
1:54 PM 62.1 °F - 53.1 °F 72% 30.13 in 10.0 mi WSW 9.2 mph - N/A   Overcast
2:54 PM 61.0 °F - 53.1 °F 75% 30.11 in 10.0 mi SSW 10.4 mph - N/A   Overcast
3:54 PM 60.1 °F - 54.0 °F 80% 30.09 in 10.0 mi SSW 6.9 mph - 0.00 in   Overcast
4:54 PM 59.0 °F - 54.0 °F 83% 30.07 in 10.0 mi Calm Calm - N/A   Overcast
5:54 PM 59.0 °F - 54.0 °F 83% 30.06 in 10.0 mi Calm Calm - N/A   Overcast
6:54 PM 59.0 °F - 55.0 °F 87% 30.05 in 9.0 mi Calm Calm - 0.00 in Rain Light Rain
7:54 PM 57.9 °F - 55.0 °F 90% 30.02 in 8.0 mi Calm Calm - 0.00 in Rain Light Rain
8:54 PM 59.0 °F - 55.9 °F 90% 30.01 in 9.0 mi SSW 4.6 mph - 0.00 in Rain Light Rain
9:54 PM 61.0 °F - 57.9 °F 90% 30.00 in 8.0 mi SW 8.1 mph - 0.00 in Rain Light Rain
10:54 PM 62.1 °F - 57.9 °F 86% 30.00 in 9.0 mi West 8.1 mph - 0.00 in   Overcast
11:12 PM 62.6 °F - 57.2 °F 82% 30.00 in 9.0 mi West 8.1 mph - 0.00 in Rain Light Rain
11:20 PM 62.6 °F - 57.2 °F 82% 30.00 in 10.0 mi WNW 6.9 mph - 0.00 in Rain Light Rain
11:42 PM 60.8 °F - 57.2 °F 88% 30.00 in 10.0 mi West 5.8 mph - 0.00 in Rain Light Rain
11:54 PM 61.0 °F - 57.9 °F 90% 30.00 in 10.0 mi West 5.8 mph - 0.00 in   Mostly Cloudy